Weather History for Sussex, NJ

Change the Weather History Date:

Friday, November 1, 2013

  Actual Average Record
Temperature  
Mean Temperature 56 °F -  
Max Temperature 69 °F 57 °F 84 °F (1950)
Min Temperature 43 °F 31 °F 19 °F (1966)
Degree Days  
Heating Degree Days 8    
Growing Degree Days 6 (Base 50)    
Moisture  
Dew Point 53 °F    
Average Humidity 78    
Maximum Humidity 93    
Minimum Humidity 56    
Precipitation  
Precipitation 0.06 in - - ()
Sea Level Pressure  
Sea Level Pressure 29.62 in    
Wind  
Wind Speed 8 mph (SW)    
Max Wind Speed 21 mph    
Max Gust Speed 36 mph    
Visibility 9 miles    
Events Rain    
Averages and records for this station are not official NWS values.
T = Trace of Precipitation, MM = Missing Value Source: NWS Daily Summary

Daily Weather History Graph

Daily Weather History Graph

Search for Another Location

Airport:

Trip Planner

Search our weather history database for the weather conditions in past years. The results will help you decide how hot, cold, wet, or windy it might be!

Date:

Astronomy

Nov. 01, 2013 Rise Set
Actual Time 7:29 AM EDT 5:53 PM EDT
Civil Twilight 7:01 AM EDT 6:22 PM EDT
Nautical Twilight 6:28 AM EDT 6:54 PM EDT
Astronomical Twilight 5:56 AM EDT 7:26 PM EDT
Moon 5:18 AM EDT (11/1) 4:45 PM EDT (11/1)
Length of Visible Light 11h 21m
Length of Day
10h 23m
Waning Crescent, 4% of the Moon is Illuminated
Nov 1
Waning Crescent
Nov 3
New
Nov 10
First Quarter
Nov 17
Full
Nov 25
Last Quarter

Hourly Weather History & Observations

Time (EDT) Temp. Dew Point Humidity Pressure Visibility Wind Dir Wind Speed Gust Speed Precip Events Conditions
12:00 AM 60.8 °F 57.2 °F 88% 29.76 in 10.0 mi SSW 9.2 mph 16.1 mph 0.00 in Rain Light Rain
12:30 AM 60.8 °F 57.2 °F 88% 29.75 in 9.0 mi SW 3.5 mph - 0.00 in Rain Light Rain
12:53 AM 62.1 °F 57.9 °F 86% 29.73 in 9.0 mi SSW 8.1 mph - 0.00 in   Overcast
1:53 AM 62.1 °F 57.9 °F 86% 29.69 in 10.0 mi SSW 10.4 mph 16.1 mph 0.00 in   Overcast
2:16 AM 62.6 °F 57.2 °F 82% 29.68 in 10.0 mi SSW 12.7 mph 25.3 mph N/A   Mostly Cloudy
2:35 AM 62.6 °F 57.2 °F 82% 29.68 in 10.0 mi SSW 9.2 mph 19.6 mph N/A   Overcast
2:53 AM 64.0 °F 57.9 °F 80% 29.67 in 10.0 mi SW 9.2 mph - N/A   Overcast
8:53 AM 69.1 °F 61.0 °F 75% 29.50 in 10.0 mi SSW 12.7 mph 25.3 mph N/A   Overcast
9:02 AM 66.2 °F 60.8 °F 83% 29.53 in 1.8 mi SW 20.7 mph 35.7 mph 0.05 in Rain Rain
9:09 AM 64.4 °F 59.0 °F 83% 29.55 in 3.0 mi SW 11.5 mph 35.7 mph 0.05 in Rain Light Rain
9:53 AM 62.1 °F 55.9 °F 80% 29.58 in 10.0 mi Variable 4.6 mph 16.1 mph 0.06 in   Overcast
10:53 AM 61.0 °F 55.0 °F 81% 29.57 in 10.0 mi SW 9.2 mph - 0.00 in Rain Light Rain
11:53 AM 62.1 °F 55.9 °F 80% 29.54 in 10.0 mi SSW 9.2 mph 18.4 mph 0.00 in   Overcast
12:53 PM 64.9 °F 55.9 °F 73% 29.54 in 10.0 mi SSW 11.5 mph 24.2 mph N/A   Mostly Cloudy
1:53 PM 66.0 °F 53.1 °F 63% 29.54 in 10.0 mi SW 11.5 mph 21.9 mph 0.00 in   Scattered Clouds
2:53 PM 68.0 °F 52.0 °F 56% 29.53 in 10.0 mi SSW 12.7 mph 25.3 mph N/A   Scattered Clouds
3:53 PM 68.0 °F 52.0 °F 56% 29.55 in 10.0 mi SSW 10.4 mph 20.7 mph N/A   Partly Cloudy
4:53 PM 66.9 °F 51.1 °F 57% 29.55 in 10.0 mi SW 10.4 mph 20.7 mph N/A   Clear
5:53 PM 64.9 °F 50.0 °F 58% 29.57 in 10.0 mi SW 4.6 mph - 0.00 in Rain Light Rain
6:53 PM 59.0 °F 48.0 °F 67% 29.60 in 10.0 mi SSW 3.5 mph - 0.00 in   Clear
7:53 PM 52.0 °F 46.0 °F 80% 29.63 in 10.0 mi WSW 3.5 mph - N/A   Clear
8:53 PM 48.0 °F 44.1 °F 86% 29.65 in 10.0 mi Calm Calm - N/A   Clear
9:53 PM 46.0 °F 44.1 °F 93% 29.68 in 10.0 mi Calm Calm - N/A   Clear
10:53 PM 44.1 °F 42.1 °F 93% 29.70 in 10.0 mi Calm Calm - N/A   Clear
11:53 PM 43.0 °F 41.0 °F 93% 29.70 in 10.0 mi Calm Calm - N/A   Clear